IRIDIUM 130 (43073 NORAD) Tracking and Keplerian Element Data

This shows tracking and keplerian element data for the satellite.

Feedback or suggestion? Click here.




ElementValue
Catalog43073
NameIRIDIUM 130
Epoch Orbit11898
Epoch Day91.79943531
Epoch Year2020
RAAN190.0392
Inclination86.4047
Eccentricity0.0002078
Argument of Perigee94.2317
Mean Anonmoly265.9116
Mean Motion14.34216222
Decay Rate7.3E-07
L11 43073U 17083D 20091.79943531 .00000073 00000-0 19144-4 0 9992
L22 43073 86.4047 190.0392 0002078 94.2317 265.9116 14.34216222118989

Live tracking and technical data element details for IRIDIUM 130 (NORAD 43073). IRIDIUM 130 can be tracked NOW for your location showing map with azimuth and elevation plus other details from your city location.

Track the satellite on the map from your city or location and see movement details for azimuth, elevation, latitude, longitude, range, height, and movement on the map or in text.







IsCatalogInMostPopularTable: catalog: 43073, numindb: 376
Update: records affected: 1



GetName: 43073 IRIDIUM 130

Hit Count: updated at: Fri, 03 Apr 2020 08:04:12 GMT